Regional Weather Roundup
Issued by NWS Lake Charles, LA

Current Version | Previous Version | Text Only | Print | Product List | Glossary On
Versions: 1 2 3 4 5 6 7 8 9 10 11 12 13 14 15 16 17 18 19 20 21 22 23 24 25 26 27 28
000
ASUS44 KLCH 282210
RWRLCH
REGIONAL WEATHER ROUNDUP
NATIONAL WEATHER SERVICE LAKE CHARLES LA
500 PM CDT FRI APR 28 2017

Note: "fair" indicates few or no clouds below 12,000 feet with no
significant weather and/or obstructions to visibility.


ACROSS SOUTHEAST TEXAS

CITY           SKY/WX    TMP DP  RH WIND       PRES   REMARKS
BEAUMONT       CLOUDY    82  75  79 SE17      29.71S
BEAUMONT CITY  CLOUDY    83  75  76 SE13G18   29.71F HAZE
ORANGE         CLOUDY    81  76  85 SE12G21   29.74S HAZE
JASPER           N/A     87  74  66 S13G21    29.72S
$$

ACROSS CENTRAL LOUISIANA

CITY           SKY/WX    TMP DP  RH WIND       PRES   REMARKS
LEESVILLE      PTSUNNY   84  75  74 SE21      29.72S
FULLERTON      CLOUDY    84  74  71 S8        29.71S
ALEXANDRIA INT CLOUDY    84  73  69 S18G30    29.73S
ESLER FIELD    PTSUNNY   85  74  69 S13G24    29.76R
DERIDDER       CLOUDY   N/A N/A N/A S15G22    29.75S HAZE
OAKDALE        CLOUDY    83  74  73 SE9G17    29.76S
OPELOUSAS      CLOUDY    83  73  71 S18       29.79S
$$

ACROSS SOUTHWEST AND SOUTH CENTRAL LOUISIANA

CITY           SKY/WX    TMP DP  RH WIND       PRES   REMARKS
SULPHUR        CLOUDY    81  75  83 SE18      29.75F HAZE
LAKE CHARLES   CLOUDY    81  74  79 S13G26    29.75F HAZE
CHENNAULT INT  CLOUDY    70  64  83 SE18G25   29.76F
CAMERON PHI    CLOUDY    79  75  89 SE15G21   29.73F FOG
DEQUINCY       CLOUDY    80  74  82 SE13G24   29.74F
JENNINGS       CLOUDY    82  73  76 S15G25    29.77F
LAFAYETTE      CLOUDY    85  75  72 SE12G20   29.80F
NEW IBERIA     CLOUDY    82  73  74 SE17G25   29.81F
ABBEVILLE      CLOUDY    81  79  94 SE15G23   29.80S
PATTERSON      CLOUDY    81  75  82 S15G22    29.83F
SALT POINT       N/A     79  75  87 SE10G18     N/A
$$

SELECTED SITES ACROSS THE REGION

CITY           SKY/WX    TMP DP  RH WIND       PRES   REMARKS
HOUSTON BUSH   PTSUNNY   85  75  72 SE18      29.63F
HOUSTON HOBBY    N/A     84  74  71 S16G23    29.64F
GALVESTON      CLOUDY    83  77  82 SE14      29.68F HAZE
COLLEGE STAT   SUNNY     91  71  51 S18G31    29.57F
CONROE         MOSUNNY   88  74  63 SE17G24   29.63F
HUNTSVILLE     SUNNY     90  69  50 S14G22    29.61F
LUFKIN         SUNNY     88  72  58 SE18G26   29.64F
SHREVEPORT     MOSUNNY   88  73  61 S18       29.65F
MONROE         CLOUDY    87  72  60 S13G23    29.73F HAZE
NATCHEZ MS     MOSUNNY   86  72  62 S16G23    29.79S
BATON ROUGE    PTSUNNY   86  72  62 S21G30    29.82F
N.O. INTL ARPT PTSUNNY   82  74  76 S17G29    29.87S
SLIDELL        CLOUDY    83  74  74 SE14G26   29.89S
$$

MARINE REPORTS

STATION/POSITION TIME  SKY/WX   TEMP    WIND        PRES    VSBY
                                AIR SEA DIR/SP/G
                 (UTC)          (F)     (DEG/KT/KT) (MB)    (MI)
BUOY 30 S HIGH I 2150            77 76  130/ 14/ 16 1005.0F
WVE H/P(F/S)=  4/ 8

SEA RIM ST PARK  2200            78     130/ 12/ 16 1006.3F
PORT ARTHUR      2148            79 75  140/ 11/ 17 1006.4F
SABINE PASS N    2148                   130/ 17/ 19   N/A
TEXAS POINT      NOT AVBL
CALCASIEU PASS   2148            78 77  150/ 13/ 17   N/A
LK CHARLES BEACH 2148            81 74              1007.8F
MARSH ISLAND     2100            78                   N/A
FRESH WATER LOCK 2148            79 78  130/ 13/ 18 1008.1F
AMERADA PASS     2148            80 73  140/ 11/ 19 1009.6F
$$




USA.gov is the U.S. government's official web portal to all federal, state and local government web resources and services.